| time (UTC) | temp F | wind direction | speed knots | gust knots | rain 1hr in | rain 24hr in | rain mn in | humidity % | barometer mb |
| 20260504041816 | 44 | 238 | 1.7 | 2.6 | 0.00 | 0.00 | 0.00 | 67 | 1015.3 |
| 20260504041313 | 44 | 223 | 2.6 | 6.1 | 0.00 | 0.00 | 0.00 | 67 | 1015.3 |
| 20260504040809 | 45 | 241 | 1.7 | 2.6 | 0.00 | 0.00 | 0.00 | 66 | 1015.1 |
| 20260504040307 | 46 | 71 | 0.9 | 3.5 | 0.00 | 0.00 | 0.00 | 65 | 1015.3 |
| 20260504035802 | 47 | 242 | 3.5 | 5.2 | 0.00 | 0.00 | 0.00 | 61 | 1015.0 |
| 20260504035300 | 48 | 228 | 2.6 | 6.1 | 0.00 | 0.00 | 0.00 | 58 | 1015.3 |
| 20260504034757 | 50 | 265 | 2.6 | 6.1 | 0.00 | 0.00 | 0.00 | 54 | 1015.3 |
| 20260504034254 | 49 | 237 | 1.7 | 5.2 | 0.00 | 0.00 | 0.00 | 55 | 1015.1 |
| 20260504033751 | 50 | 248 | 3.5 | 5.2 | 0.00 | 0.00 | 0.00 | 54 | 1015.3 |
| 20260504033249 | 50 | 33 | 0.9 | 3.5 | 0.00 | 0.00 | 0.00 | 52 | 1015.1 |
| 20260504032746 | 50 | 250 | 4.3 | 5.2 | 0.00 | 0.00 | 0.00 | 53 | 1015.4 |
| 20260504032243 | 50 | 226 | 1.7 | 7.0 | 0.00 | 0.00 | 0.00 | 54 | 1015.1 |
| 20260504031739 | 50 | 151 | 2.6 | 5.2 | 0.00 | 0.00 | 0.00 | 54 | 1015.0 |
| 20260504031237 | 51 | 231 | 0.0 | 3.5 | 0.00 | 0.00 | 0.00 | 53 | 1015.3 |
| 20260504030732 | 51 | 244 | 5.2 | 6.1 | 0.00 | 0.00 | 0.00 | 52 | 1015.1 |
| 20260504030230 | 50 | 162 | 1.7 | 5.2 | 0.00 | 0.00 | 0.00 | 53 | 1014.9 |
| 20260504025726 | 50 | 277 | 0.9 | 5.2 | 0.00 | 0.00 | 0.00 | 54 | 1015.0 |
| 20260504025223 | 50 | 243 | 1.7 | 6.1 | 0.00 | 0.00 | 0.00 | 55 | 1015.1 |
| 20260504024720 | 51 | 224 | 2.6 | 2.6 | 0.00 | 0.00 | 0.00 | 54 | 1015.3 |
| 20260504024217 | 50 | 222 | 5.2 | 7.0 | 0.00 | 0.00 | 0.00 | 54 | 1015.5 |
| 20260504023714 | 51 | 239 | 0.9 | 2.6 | 0.00 | 0.00 | 0.00 | 53 | 1015.4 |
| 20260504023209 | 50 | 227 | 3.5 | 7.0 | 0.00 | 0.00 | 0.00 | 53 | 1015.3 |
| 20260504022706 | 51 | 239 | 2.6 | 5.2 | 0.00 | 0.00 | 0.00 | 52 | 1015.1 |
| 20260504022202 | 51 | 231 | 2.6 | 5.2 | 0.00 | 0.00 | 0.00 | 53 | 1015.1 |
| 20260504021700 | 51 | 55 | 0.0 | 5.2 | 0.00 | 0.00 | 0.00 | 54 | 1015.0 |
| 20260504021156 | 51 | 208 | 1.7 | 6.1 | 0.00 | 0.00 | 0.00 | 52 | 1015.1 |
| 20260504020653 | 51 | 258 | 3.5 | 6.1 | 0.00 | 0.00 | 0.00 | 52 | 1015.3 |
| 20260504020149 | 51 | 20 | 1.7 | 5.2 | 0.00 | 0.00 | 0.00 | 53 | 1015.3 |
| 20260504015646 | 51 | 205 | 3.5 | 6.1 | 0.00 | 0.00 | 0.00 | 52 | 1015.1 |
| 20260504015143 | 51 | 238 | 3.5 | 5.2 | 0.00 | 0.00 | 0.00 | 53 | 1015.3 |
| 20260504014638 | 51 | 260 | 2.6 | 5.2 | 0.00 | 0.00 | 0.00 | 52 | 1015.3 |
| 20260504014136 | 51 | 230 | 0.9 | 3.5 | 0.00 | 0.00 | 0.00 | 52 | 1015.1 |
| 20260504013633 | 52 | 214 | 1.7 | 3.5 | 0.00 | 0.00 | 0.00 | 50 | 1015.3 |
| 20260504013130 | 51 | 230 | 4.3 | 11.3 | 0.00 | 0.00 | 0.00 | 50 | 1015.0 |
| 20260504012627 | 51 | 221 | 3.5 | 5.2 | 0.00 | 0.00 | 0.00 | 51 | 1015.1 |
| 20260504012125 | 52 | 251 | 7.8 | 8.7 | 0.00 | 0.00 | 0.00 | 49 | 1015.0 |
| 20260504011622 | 52 | 233 | 1.7 | 3.5 | 0.00 | 0.00 | 0.00 | 50 | 1014.9 |
| 20260504011118 | 53 | 121 | 1.7 | 5.2 | 0.00 | 0.00 | 0.00 | 47 | 1014.9 |
| 20260504010614 | 53 | 260 | 8.7 | 9.6 | 0.00 | 0.00 | 0.00 | 47 | 1014.8 |
| 20260504010110 | 54 | 229 | 6.1 | 7.8 | 0.00 | 0.00 | 0.00 | 47 | 1014.8 |
| 20260504005607 | 54 | 127 | 2.6 | 9.6 | 0.00 | 0.00 | 0.00 | 46 | 1014.8 |
| 20260504005104 | 54 | 246 | 7.8 | 13.9 | 0.00 | 0.00 | 0.00 | 46 | 1014.7 |
| 20260504004602 | 54 | 218 | 4.3 | 7.0 | 0.00 | 0.00 | 0.00 | 46 | 1014.8 |
| 20260504004059 | 54 | 244 | 5.2 | 16.5 | 0.00 | 0.00 | 0.00 | 46 | 1014.8 |
| 20260504003555 | 54 | 253 | 7.8 | 9.6 | 0.00 | 0.00 | 0.00 | 46 | 1014.8 |
| 20260504003052 | 54 | 234 | 5.2 | 9.6 | 0.00 | 0.00 | 0.00 | 46 | 1014.8 |
| 20260504002549 | 54 | 236 | 2.6 | 5.2 | 0.00 | 0.00 | 0.00 | 47 | 1014.5 |
| 20260504002046 | 54 | 244 | 6.1 | 8.7 | 0.00 | 0.00 | 0.00 | 45 | 1014.7 |
| 20260504001544 | 54 | 237 | 2.6 | 12.2 | 0.00 | 0.00 | 0.00 | 45 | 1014.6 |
| 20260504001039 | 55 | 247 | 3.5 | 6.1 | 0.00 | 0.00 | 0.00 | 45 | 1014.7 |
| 20260504000537 | 55 | 244 | 7.0 | 9.6 | 0.00 | 0.00 | 0.00 | 44 | 1014.4 |
| 20260504000035 | 55 | 230 | 5.2 | 11.3 | 0.00 | 0.00 | 0.00 | 44 | 1014.6 |
| 20260503235533 | 55 | 238 | 5.2 | 7.0 | 0.00 | 0.00 | 0.00 | 44 | 1014.5 |
| 20260503235029 | 55 | 255 | 4.3 | 7.0 | 0.00 | 0.00 | 0.00 | 43 | 1014.6 |
| 20260503234527 | 55 | 245 | 8.7 | 9.6 | 0.00 | 0.00 | 0.00 | 45 | 1014.6 |
| 20260503234025 | 56 | 273 | 3.5 | 9.6 | 0.00 | 0.00 | 0.00 | 42 | 1014.6 |
| 20260503233521 | 56 | 309 | 5.2 | 6.1 | 0.00 | 0.00 | 0.00 | 41 | 1014.5 |
| 20260503233017 | 56 | 240 | 6.1 | 8.7 | 0.00 | 0.00 | 0.00 | 43 | 1014.6 |
| 20260503232514 | 57 | 196 | 3.5 | 6.1 | 0.00 | 0.00 | 0.00 | 43 | 1014.5 |
| 20260503232012 | 57 | 240 | 13.0 | 20.9 | 0.00 | 0.00 | 0.00 | 43 | 1014.6 |
| 20260503231510 | 56 | 247 | 7.0 | 11.3 | 0.00 | 0.00 | 0.00 | 42 | 1014.3 |
| 20260503231006 | 56 | 245 | 10.4 | 12.2 | 0.00 | 0.00 | 0.00 | 43 | 1014.6 |
| 20260503230503 | 57 | 201 | 4.3 | 8.7 | 0.00 | 0.00 | 0.00 | 44 | 1014.7 |
| 20260503230000 | 57 | 198 | 7.0 | 7.8 | 0.00 | 0.00 | 0.00 | 42 | 1014.5 |
| 20260503225456 | 57 | 242 | 9.6 | 15.6 | 0.00 | 0.00 | 0.00 | 41 | 1014.3 |
| 20260503224952 | 57 | 235 | 7.8 | 8.7 | 0.00 | 0.00 | 0.00 | 42 | 1014.3 |
| 20260503224449 | 57 | 278 | 11.3 | 14.8 | 0.00 | 0.00 | 0.00 | 41 | 1014.4 |
| 20260503223947 | 57 | 251 | 4.3 | 7.0 | 0.00 | 0.00 | 0.00 | 41 | 1014.4 |
| 20260503223445 | 57 | 242 | 4.3 | 6.1 | 0.00 | 0.00 | 0.00 | 43 | 1014.5 |
| 20260503222940 | 58 | 241 | 13.0 | 18.2 | 0.00 | 0.00 | 0.00 | 41 | 1014.4 |
| 20260503222439 | 58 | 248 | 9.6 | 13.0 | 0.00 | 0.00 | 0.00 | 41 | 1014.4 |
| 20260503221937 | 58 | 268 | 9.6 | 13.9 | 0.00 | 0.00 | 0.00 | 40 | 1014.8 |
| 20260503221435 | 57 | 268 | 11.3 | 13.9 | 0.00 | 0.00 | 0.00 | 41 | 1014.6 |
| 20260503220931 | 57 | 249 | 8.7 | 15.6 | 0.00 | 0.00 | 0.00 | 44 | 1014.5 |
| 20260503220427 | 57 | 250 | 6.1 | 13.9 | 0.00 | 0.00 | 0.00 | 41 | 1014.5 |
| 20260503215925 | 57 | 228 | 9.6 | 9.6 | 0.00 | 0.00 | 0.00 | 42 | 1014.6 |
| 20260503215422 | 56 | 307 | 7.0 | 15.6 | 0.00 | 0.00 | 0.00 | 42 | 1014.7 |
| 20260503214919 | 57 | 254 | 4.3 | 7.8 | 0.00 | 0.00 | 0.00 | 44 | 1014.7 |
| 20260503214416 | 57 | 236 | 5.2 | 13.9 | 0.00 | 0.00 | 0.00 | 42 | 1014.8 |
| 20260503213914 | 56 | 247 | 5.2 | 7.8 | 0.00 | 0.00 | 0.00 | 42 | 1014.8 |
| 20260503213412 | 56 | 256 | 7.8 | 8.7 | 0.00 | 0.00 | 0.00 | 41 | 1014.8 |
| 20260503212908 | 57 | 266 | 9.6 | 16.5 | 0.00 | 0.00 | 0.00 | 41 | 1014.6 |
| 20260503212406 | 56 | 257 | 3.5 | 11.3 | 0.00 | 0.00 | 0.00 | 42 | 1014.5 |
| 20260503211903 | 56 | 317 | 1.7 | 16.5 | 0.00 | 0.00 | 0.00 | 41 | 1014.7 |
| 20260503211359 | 57 | 23 | 3.5 | 16.5 | 0.00 | 0.00 | 0.00 | 40 | 1014.6 |
| 20260503210854 | 58 | 287 | 7.0 | 18.2 | 0.00 | 0.00 | 0.00 | 43 | 1014.7 |
| 20260503210352 | 58 | 283 | 6.1 | 13.9 | 0.00 | 0.00 | 0.00 | 40 | 1014.6 |
| 20260503205847 | 59 | 254 | 5.2 | 11.3 | 0.00 | 0.00 | 0.00 | 40 | 1014.7 |
| 20260503205344 | 57 | 310 | 4.3 | 6.1 | 0.00 | 0.00 | 0.00 | 40 | 1014.6 |
| 20260503204840 | 57 | 297 | 1.7 | 2.6 | 0.00 | 0.00 | 0.00 | 40 | 1014.7 |
| 20260503204338 | 57 | 287 | 4.3 | 13.0 | 0.00 | 0.00 | 0.00 | 39 | 1014.6 |
| 20260503203835 | 57 | 285 | 6.1 | 13.9 | 0.00 | 0.00 | 0.00 | 40 | 1014.5 |
| 20260503203332 | 58 | 301 | 5.2 | 13.0 | 0.00 | 0.00 | 0.00 | 39 | 1014.7 |
| 20260503202829 | 57 | 261 | 5.2 | 11.3 | 0.00 | 0.00 | 0.00 | 41 | 1014.7 |
| 20260503202327 | 57 | 248 | 7.8 | 13.9 | 0.00 | 0.00 | 0.00 | 41 | 1014.8 |
| 20260503201825 | 57 | 33 | 3.5 | 18.2 | 0.00 | 0.00 | 0.00 | 39 | 1015.3 |
| 20260503201322 | 57 | 323 | 6.1 | 7.8 | 0.00 | 0.00 | 0.00 | 41 | 1014.9 |
| 20260503200820 | 56 | 262 | 12.2 | 14.8 | 0.00 | 0.00 | 0.00 | 40 | 1014.8 |
| 20260503200315 | 56 | 249 | 8.7 | 19.1 | 0.00 | 0.00 | 0.00 | 43 | 1015.0 |
| 20260503195813 | 56 | 49 | 3.5 | 14.8 | 0.00 | 0.00 | 0.00 | 41 | 1014.8 |
| 20260503195309 | 57 | 252 | 7.0 | 19.1 | 0.00 | 0.00 | 0.00 | 41 | 1015.1 |
| 20260503194807 | 58 | 252 | 8.7 | 11.3 | 0.00 | 0.00 | 0.00 | 41 | 1015.3 |
| 20260503194302 | 58 | 280 | 7.8 | 15.6 | 0.00 | 0.00 | 0.00 | 40 | 1015.3 |
| 20260503193758 | 58 | 240 | 5.2 | 20.9 | 0.00 | 0.00 | 0.00 | 38 | 1015.4 |
| 20260503193255 | 58 | 273 | 9.6 | 23.5 | 0.00 | 0.00 | 0.00 | 40 | 1015.3 |
| 20260503192751 | 57 | 255 | 7.8 | 12.2 | 0.00 | 0.00 | 0.00 | 38 | 1015.3 |
| 20260503192246 | 57 | 234 | 2.6 | 9.6 | 0.00 | 0.00 | 0.00 | 39 | 1015.5 |
| 20260503191743 | 55 | 216 | 13.0 | 19.1 | 0.00 | 0.00 | 0.00 | 41 | 1015.4 |
| 20260503191240 | 55 | 320 | 3.5 | 5.2 | 0.00 | 0.00 | 0.00 | 42 | 1015.4 |
| 20260503190737 | 55 | 328 | 6.1 | 8.7 | 0.00 | 0.00 | 0.00 | 40 | 1015.8 |
| 20260503190233 | 56 | 234 | 9.6 | 13.0 | 0.00 | 0.00 | 0.00 | 44 | 1015.4 |
| 20260503185731 | 57 | 233 | 4.3 | 7.0 | 0.00 | 0.00 | 0.00 | 45 | 1015.6 |
| 20260503185226 | 56 | 343 | 3.5 | 13.9 | 0.00 | 0.00 | 0.00 | 42 | 1015.8 |
| 20260503184721 | 57 | 292 | 15.6 | 20.9 | 0.00 | 0.00 | 0.00 | 40 | 1015.6 |
| 20260503184218 | 57 | 286 | 9.6 | 13.0 | 0.00 | 0.00 | 0.00 | 40 | 1015.8 |
| 20260503183714 | 56 | 320 | 4.3 | 13.0 | 0.00 | 0.00 | 0.00 | 41 | 1015.8 |
| 20260503183211 | 56 | 299 | 13.9 | 15.6 | 0.00 | 0.00 | 0.00 | 43 | 1015.7 |
| 20260503182709 | 56 | 321 | 5.2 | 13.0 | 0.00 | 0.00 | 0.00 | 41 | 1015.8 |
| 20260503182208 | 56 | 278 | 13.0 | 18.2 | 0.00 | 0.00 | 0.00 | 43 | 1016.0 |
| 20260503181704 | 56 | 300 | 9.6 | 14.8 | 0.00 | 0.00 | 0.00 | 43 | 1016.1 |
| 20260503181201 | 56 | 324 | 7.8 | 9.6 | 0.00 | 0.00 | 0.00 | 43 | 1015.9 |
| 20260503180657 | 56 | 341 | 8.7 | 12.2 | 0.00 | 0.00 | 0.00 | 43 | 1015.7 |
| 20260503180156 | 54 | 44 | 0.0 | 6.1 | 0.00 | 0.00 | 0.00 | 45 | 1016.3 |
| 20260503175652 | 55 | 283 | 10.4 | 13.0 | 0.00 | 0.00 | 0.00 | 43 | 1016.2 |
| 20260503175150 | 54 | 310 | 7.0 | 13.0 | 0.00 | 0.00 | 0.00 | 43 | 1016.1 |
| 20260503174646 | 54 | 295 | 12.2 | 14.8 | 0.00 | 0.00 | 0.00 | 42 | 1016.2 |
| 20260503174143 | 54 | 267 | 7.8 | 13.0 | 0.00 | 0.00 | 0.00 | 43 | 1016.3 |
| 20260503173638 | 54 | 258 | 15.6 | 19.1 | 0.00 | 0.00 | 0.00 | 45 | 1016.3 |
| 20260503173135 | 55 | 248 | 15.6 | 19.1 | 0.00 | 0.00 | 0.00 | 45 | 1015.9 |
| 20260503172632 | 55 | 273 | 10.4 | 14.8 | 0.00 | 0.00 | 0.00 | 44 | 1016.2 |
| 20260503172129 | 54 | 245 | 6.1 | 12.2 | 0.00 | 0.00 | 0.00 | 43 | 1016.3 |
| 20260503171626 | 54 | 281 | 13.0 | 13.9 | 0.00 | 0.00 | 0.00 | 44 | 1016.4 |
| 20260503171123 | 53 | 266 | 10.4 | 12.2 | 0.00 | 0.00 | 0.00 | 45 | 1016.5 |
| 20260503170620 | 54 | 317 | 13.0 | 13.9 | 0.00 | 0.00 | 0.00 | 45 | 1016.6 |
| 20260503170117 | 54 | 294 | 14.8 | 15.6 | 0.00 | 0.00 | 0.00 | 46 | 1016.7 |
| 20260503151012 | 50 | 330 | 5.2 | 13.9 | 0.00 | 0.00 | 0.00 | 47 | 1017.5 |
| 20260503150509 | 49 | 249 | 4.3 | 7.8 | 0.00 | 0.00 | 0.00 | 48 | 1017.3 |
| 20260503131401 | 44 | 303 | 10.4 | 13.9 | 0.00 | 0.00 | 0.00 | 63 | 1017.7 |
| 20260503130859 | 44 | 300 | 6.1 | 15.6 | 0.00 | 0.00 | 0.00 | 63 | 1017.5 |
| 20260503130356 | 43 | 279 | 6.1 | 7.0 | 0.00 | 0.00 | 0.00 | 65 | 1017.7 |
| 20260503110755 | 37 | 255 | 7.0 | 8.7 | 0.00 | 0.00 | 0.00 | 76 | 1017.2 |
| 20260503110252 | 37 | 298 | 2.6 | 7.8 | 0.00 | 0.00 | 0.00 | 74 | 1017.1 |
| 20260503100218 | 36 | 282 | 6.1 | 7.0 | 0.00 | 0.00 | 0.00 | 76 | 1016.5 |
| 20260503090148 | 37 | 279 | 3.5 | 5.2 | 0.00 | 0.00 | 0.00 | 74 | 1016.4 |
| 20260503081623 | 37 | 310 | 2.6 | 3.5 | 0.00 | 0.00 | 0.00 | 73 | 1016.0 |
| 20260503081120 | 37 | 280 | 4.3 | 7.0 | 0.00 | 0.00 | 0.00 | 74 | 1016.2 |
| 20260503080616 | 37 | 1 | 3.5 | 5.2 | 0.00 | 0.00 | 0.00 | 73 | 1016.1 |
| 20260503080113 | 37 | 329 | 3.5 | 7.0 | 0.00 | 0.00 | 0.00 | 73 | 1015.9 |
| 20260503072550 | 38 | 279 | 3.5 | 6.1 | 0.00 | 0.00 | 0.00 | 73 | 1015.7 |
| 20260503072048 | 38 | 279 | 5.2 | 7.8 | 0.00 | 0.00 | 0.00 | 72 | 1015.8 |
| 20260503071544 | 37 | 317 | 3.5 | 6.1 | 0.00 | 0.00 | 0.00 | 73 | 1015.8 |
| 20260503071041 | 37 | 306 | 2.6 | 2.6 | 0.00 | 0.00 | 0.00 | 73 | 1015.7 |
| 20260503070537 | 38 | 287 | 3.5 | 6.1 | 0.00 | 0.00 | 0.00 | 72 | 1015.8 |
| 20260503054951 | 39 | 33 | 1.7 | 6.1 | 0.00 | 0.00 | 0.00 | 70 | 1015.7 |
| 20260503054447 | 39 | 30 | 0.0 | 1.7 | 0.00 | 0.00 | 0.00 | 70 | 1015.7 |
| 20260503053945 | 39 | 232 | 2.6 | 5.2 | 0.00 | 0.00 | 0.00 | 70 | 1015.8 |
| 20260503053443 | 39 | 24 | 4.3 | 5.2 | 0.00 | 0.00 | 0.00 | 69 | 1015.6 |
| 20260503052939 | 39 | 339 | 2.6 | 5.2 | 0.00 | 0.00 | 0.00 | 69 | 1015.8 |
| 20260503052437 | 40 | 350 | 1.7 | 5.2 | 0.00 | 0.00 | 0.00 | 67 | 1015.6 |
| 20260503051932 | 39 | 12 | 6.1 | 11.3 | 0.00 | 0.00 | 0.00 | 68 | 1015.8 |
| 20260503051428 | 40 | 311 | 5.2 | 7.0 | 0.00 | 0.00 | 0.00 | 68 | 1016.0 |
| 20260503050926 | 40 | 239 | 1.7 | 3.5 | 0.00 | 0.00 | 0.00 | 67 | 1016.0 |
| 20260503050422 | 40 | 280 | 5.2 | 11.3 | 0.00 | 0.00 | 0.00 | 67 | 1016.0 |
| 20260503045920 | 40 | 293 | 5.2 | 6.1 | 0.00 | 0.00 | 0.00 | 67 | 1016.0 |
| 20260503045417 | 40 | 268 | 4.3 | 6.1 | 0.00 | 0.00 | 0.00 | 66 | 1016.0 |
| 20260503044913 | 40 | 298 | 2.6 | 6.1 | 0.00 | 0.00 | 0.00 | 66 | 1015.9 |
| 20260503044410 | 41 | 316 | 2.6 | 3.5 | 0.00 | 0.00 | 0.00 | 67 | 1015.9 |
| 20260503043908 | 41 | 340 | 5.2 | 7.0 | 0.00 | 0.00 | 0.00 | 66 | 1016.0 |
| 20260503043404 | 41 | 300 | 2.6 | 3.5 | 0.00 | 0.00 | 0.00 | 68 | 1015.8 |
| 20260503042900 | 41 | 336 | 3.5 | 5.2 | 0.00 | 0.00 | 0.00 | 67 | 1015.9 |
| 20260503042357 | 41 | 359 | 3.5 | 3.5 | 0.00 | 0.00 | 0.00 | 69 | 1015.9 |